TimeMST,TemperatureF,Dew PointF,Humidity,Sea Level PressureIn,VisibilityMPH,Wind Direction,Wind SpeedMPH,Gust SpeedMPH,PrecipitationIn,Events,Conditions,WindDirDegrees,DateUTC
12:15 AM,26.6,19.4,74,30.26,10.0,ENE,4.6,-,N/A,,Clear,60,2012-11-27 07:15:00
12:35 AM,26.6,21.2,80,30.26,10.0,Calm,Calm,-,N/A,,Clear,0,2012-11-27 07:35:00
12:55 AM,24.8,19.4,80,30.26,10.0,Calm,Calm,-,N/A,,Clear,0,2012-11-27 07:55:00
1:15 AM,24.8,19.4,80,30.26,10.0,Calm,Calm,-,N/A,,Clear,0,2012-11-27 08:15:00
1:35 AM,26.6,17.6,69,30.26,10.0,Calm,Calm,-,N/A,,Clear,0,2012-11-27 08:35:00
1:55 AM,26.6,17.6,69,30.26,10.0,Calm,Calm,-,N/A,,Clear,0,2012-11-27 08:55:00
2:15 AM,24.8,17.6,74,30.26,10.0,Calm,Calm,-,N/A,,Clear,0,2012-11-27 09:15:00
2:35 AM,23.0,15.8,74,30.26,10.0,Calm,Calm,-,N/A,,Clear,0,2012-11-27 09:35:00
2:55 AM,24.8,17.6,74,30.27,10.0,ENE,3.5,-,N/A,,Clear,60,2012-11-27 09:55:00
3:15 AM,24.8,19.4,80,30.27,10.0,Calm,Calm,-,N/A,,Clear,0,2012-11-27 10:15:00
3:35 AM,24.8,19.4,80,30.27,10.0,Calm,Calm,-,N/A,,Clear,0,2012-11-27 10:35:00
3:55 AM,23.0,17.6,80,30.27,10.0,West,3.5,-,N/A,,Clear,260,2012-11-27 10:55:00
4:15 AM,24.8,19.4,80,30.27,10.0,Calm,Calm,-,N/A,,Clear,0,2012-11-27 11:15:00
4:35 AM,24.8,15.8,69,30.27,10.0,Calm,Calm,-,N/A,,Clear,0,2012-11-27 11:35:00
5:15 AM,24.8,15.8,69,30.27,10.0,West,4.6,-,N/A,,Clear,270,2012-11-27 12:15:00
5:35 AM,23.0,15.8,74,30.27,10.0,Calm,Calm,-,N/A,,Clear,0,2012-11-27 12:35:00
5:55 AM,21.2,15.8,80,30.27,10.0,Calm,Calm,-,N/A,,Clear,0,2012-11-27 12:55:00
6:15 AM,23.0,15.8,74,30.27,10.0,Calm,Calm,-,N/A,,Clear,0,2012-11-27 13:15:00
6:35 AM,23.0,15.8,74,30.27,10.0,WNW,3.5,-,N/A,,Clear,290,2012-11-27 13:35:00
6:55 AM,26.6,23.0,86,30.28,10.0,Calm,Calm,-,N/A,,Clear,0,2012-11-27 13:55:00
7:15 AM,21.2,19.4,93,30.28,10.0,NE,3.5,-,N/A,,Clear,50,2012-11-27 14:15:00
7:35 AM,23.0,17.6,80,30.29,10.0,NE,6.9,-,N/A,,Clear,50,2012-11-27 14:35:00
7:55 AM,21.2,15.8,80,30.29,10.0,NE,5.8,-,N/A,,Clear,50,2012-11-27 14:55:00
8:15 AM,23.0,19.4,86,30.30,10.0,Calm,Calm,-,N/A,,Clear,0,2012-11-27 15:15:00
8:35 AM,24.8,17.6,74,30.31,10.0,Calm,Calm,-,N/A,,Clear,0,2012-11-27 15:35:00
8:55 AM,24.8,17.6,74,30.31,10.0,Calm,Calm,-,N/A,,Clear,0,2012-11-27 15:55:00
9:15 AM,28.4,19.4,69,30.32,10.0,Calm,Calm,-,N/A,,Clear,0,2012-11-27 16:15:00
9:35 AM,28.4,21.2,74,30.32,10.0,Calm,Calm,-,N/A,,Clear,0,2012-11-27 16:35:00
9:55 AM,30.2,21.2,69,30.33,10.0,Calm,Calm,-,N/A,,Clear,0,2012-11-27 16:55:00
10:15 AM,30.2,23.0,75,30.33,10.0,Calm,Calm,-,N/A,,Clear,0,2012-11-27 17:15:00
10:35 AM,33.8,24.8,70,30.33,10.0,SSE,3.5,-,N/A,,Clear,150,2012-11-27 17:35:00
10:55 AM,33.8,24.8,70,30.32,10.0,ESE,3.5,-,N/A,,Clear,120,2012-11-27 17:55:00
11:15 AM,35.6,24.8,65,30.32,10.0,Calm,Calm,-,N/A,,Clear,0,2012-11-27 18:15:00
11:35 AM,35.6,24.8,65,30.30,10.0,SE,5.8,-,N/A,,Clear,130,2012-11-27 18:35:00
11:55 AM,37.4,26.6,65,30.30,10.0,SE,5.8,-,N/A,,Clear,140,2012-11-27 18:55:00
12:15 PM,37.4,26.6,65,30.29,10.0,ESE,5.8,-,N/A,,Clear,110,2012-11-27 19:15:00
12:35 PM,37.4,26.6,65,30.28,10.0,SE,4.6,-,N/A,,Clear,140,2012-11-27 19:35:00
12:55 PM,39.2,26.6,61,30.28,10.0,SE,3.5,-,N/A,,Clear,140,2012-11-27 19:55:00
1:15 PM,39.2,26.6,61,30.27,10.0,SE,3.5,-,N/A,,Clear,140,2012-11-27 20:15:00
1:35 PM,39.2,26.6,61,30.26,10.0,SSE,3.5,-,N/A,,Clear,160,2012-11-27 20:35:00
1:55 PM,39.2,26.6,61,30.25,10.0,ESE,3.5,-,N/A,,Clear,120,2012-11-27 20:55:00
2:15 PM,39.2,26.6,61,30.24,10.0,Calm,Calm,-,N/A,,Clear,0,2012-11-27 21:15:00
2:35 PM,41.0,26.6,57,30.24,10.0,Calm,Calm,-,N/A,,Clear,0,2012-11-27 21:35:00
2:55 PM,41.0,26.6,57,30.23,10.0,ESE,4.6,-,N/A,,Clear,110,2012-11-27 21:55:00
3:15 PM,41.0,26.6,57,30.23,10.0,ESE,4.6,-,N/A,,Clear,120,2012-11-27 22:15:00
3:35 PM,39.2,26.6,61,30.23,10.0,ESE,3.5,-,N/A,,Clear,110,2012-11-27 22:35:00
3:55 PM,39.2,26.6,61,30.23,10.0,East,3.5,-,N/A,,Clear,100,2012-11-27 22:55:00
4:15 PM,39.2,26.6,61,30.23,10.0,ESE,3.5,-,N/A,,Clear,110,2012-11-27 23:15:00
4:55 PM,37.4,26.6,65,30.22,10.0,Calm,Calm,-,N/A,,Clear,0,2012-11-27 23:55:00
5:15 PM,37.4,26.6,65,30.22,10.0,Calm,Calm,-,N/A,,Clear,0,2012-11-28 00:15:00
5:35 PM,37.4,26.6,65,30.22,10.0,Calm,Calm,-,N/A,,Clear,0,2012-11-28 00:35:00
5:55 PM,35.6,24.8,65,30.22,10.0,WNW,3.5,-,N/A,,Clear,290,2012-11-28 00:55:00
6:15 PM,33.8,24.8,70,30.22,10.0,West,4.6,-,N/A,,Clear,280,2012-11-28 01:15:00
6:35 PM,33.8,24.8,70,30.22,10.0,WNW,5.8,-,N/A,,Clear,290,2012-11-28 01:35:00
6:55 PM,33.8,23.0,65,30.22,10.0,WNW,4.6,-,N/A,,Clear,290,2012-11-28 01:55:00
7:15 PM,33.8,24.8,70,30.22,10.0,WNW,4.6,-,N/A,,Clear,300,2012-11-28 02:15:00
7:55 PM,33.8,23.0,65,30.22,10.0,Calm,Calm,-,N/A,,Clear,0,2012-11-28 02:55:00
8:15 PM,30.2,21.2,69,30.22,10.0,West,3.5,-,N/A,,Clear,280,2012-11-28 03:15:00
8:35 PM,30.2,21.2,69,30.22,10.0,West,3.5,-,N/A,,Clear,280,2012-11-28 03:35:00
8:55 PM,30.2,19.4,64,30.22,10.0,Calm,Calm,-,N/A,,Clear,0,2012-11-28 03:55:00
9:15 PM,30.2,21.2,69,30.22,10.0,Calm,Calm,-,N/A,,Clear,0,2012-11-28 04:15:00
9:35 PM,28.4,19.4,69,30.22,10.0,Calm,Calm,-,N/A,,Clear,0,2012-11-28 04:35:00
9:55 PM,28.4,19.4,69,30.22,10.0,Calm,Calm,-,N/A,,Clear,0,2012-11-28 04:55:00
10:15 PM,28.4,21.2,74,30.23,10.0,Calm,Calm,-,N/A,,Clear,0,2012-11-28 05:15:00
10:35 PM,28.4,23.0,80,30.23,10.0,Calm,Calm,-,N/A,,Clear,0,2012-11-28 05:35:00
10:55 PM,26.6,17.6,69,30.23,10.0,NE,4.6,-,N/A,,Clear,50,2012-11-28 05:55:00
11:15 PM,28.4,21.2,74,30.23,10.0,Calm,Calm,-,N/A,,Clear,0,2012-11-28 06:15:00
11:35 PM,28.4,19.4,69,30.22,10.0,Calm,Calm,-,N/A,,Clear,0,2012-11-28 06:35:00
11:55 PM,26.6,17.6,69,30.23,10.0,Calm,Calm,-,N/A,,Clear,0,2012-11-28 06:55:00